Location: Horowhenua
(40.7500°S, 175.3333°E)
Time: 00:31:41
(UTC+00:00)

Envisat - Pass Details

Date: 28 January 2023
Orbit: 763 x 765 km, 98.2° (Epoch: 20 March)

Event Time Altitude Azimuth Distance (km) Brightness Sun altitude
Exits shadow 16:34:45 - 332° (NNW) 2,596 5.2 -8.5°
Reaches altitude 10° 16:35:40 10° 326° (NNW) 2,305 4.9 -8.4°
Maximum altitude 16:39:42 23° 274° (W) 1,582 4.2 -7.7°
Drops below altitude 10° 16:43:46 10° 221° (SW) 2,330 5.4 -7.1°
Sets 16:46:33 0° 206° (SSW) 3,265 6.3 -6.6°
